sat.trackr.live / text

‹ back to catalog

STARLINK-6283

NORAD 56406 · 2023-061AJ

PAYLOAD ACTIVE UNKNOWN

§ Identity

Operator
Country
US
Launch date
2023-05-04
Launch site
AFETR
Launch vehicle
Mass (kg)
RCS (m²)

Purposes: comms

External: N2YO · Heavens-Above · Gunter

§ Orbital elements

Epoch: 2026-09-20T02:34:17.848128Z

Period
94.27 min
Inclination
43.0013°
Eccentricity
0.0000882
Mean motion
15.27575538 rev/d
Perigee alt
482.5 km
Apogee alt
483.7 km
Semi-major
6,861.2 km
B*
3.1803e-6
RAAN
169.4539°
Arg perigee
210.9253°
Mean anomaly
149.1547°
Rev number
18,660

§ Raw data

STARLINK-62831 56406U 23061AJ  26263.10715102 -.00000174  00000+0  31803-5 0  99912 56406  43.0013 169.4539 0000882 210.9253 149.1547 15.27575538186601

JSON: /api/v1/satellites/56406 · /tle

For live sub-satellite position, see the globe view (requires WebGL).

§ Visibility from observer

Set your observer location to see the next 7 days of passes ≥ 10°. The values pass through the URL so the page stays shareable.

No JS? Fill the form by hand. The geolocation button needs JavaScript.